Stations météo

réclame
Mon MeteoGroup
Decimomannu, Italie (16546): Température de l'air & dewpoint: 08.12.2018 11:00:00 - 14.12.2018 11:00:00 (CET)Decimomannu, Italie (16546): Vitesse du vent: 08.12.2018 11:00:00 - 14.12.2018 11:00:00 (CET)Decimomannu, Italie (16546): Direction du vent: 08.12.2018 11:00:00 - 14.12.2018 11:00:00 (CET)Decimomannu, Italie (16546): reduced air pressure: 08.12.2018 11:00:00 - 14.12.2018 11:00:00 (CET)Decimomannu, Italie (16546): visibility: 08.12.2018 11:00:00 - 14.12.2018 11:00:00 (CET)
Date & Time tt [°C] td [°C] ff [km/h] ff [knt] dd ppp [hPa] vv [km]
14.12.2018 11:00:00 - - - - - - -
14.12.2018 10:00:00 12,0 10,1 4 2 SE 1006,5 18
14.12.2018 09:00:00 12,0 10,0 4 2 ENE - 10
14.12.2018 08:00:00 12,0 10,0 4 2 NW - 10
14.12.2018 07:00:00 11,8 9,9 8 4 S 1005,3 10
14.12.2018 06:00:00 12,0 10,0 8 4 SE - 10
14.12.2018 05:00:00 12,0 10,0 4 2 SE - 10
14.12.2018 04:00:00 12,4 10,5 5 3 E 1005,9 10
14.12.2018 03:00:00 12,0 10,0 13 7 SSW - 10
14.12.2018 02:00:00 12,0 10,0 15 8 SSW - 10
14.12.2018 01:00:00 12,4 10,5 16 9 SSW 1006,8 12
14.12.2018 00:00:00 13,0 11,0 11 6 SSW - 8
13.12.2018 23:00:00 13,0 11,0 11 6 ESE - 8
13.12.2018 22:00:00 13,2 11,3 8 4 S 1006,8 8
13.12.2018 21:00:00 13,0 11,0 8 4 SE - 8
13.12.2018 20:00:00 13,0 11,0 5 3 S - 7
13.12.2018 19:00:00 12,8 11,0 11 6 SSE 1007,7 7
13.12.2018 18:00:00 13,0 11,0 8 4 SSE - 7
13.12.2018 17:00:00 13,0 12,0 11 6 S - 7
13.12.2018 16:00:00 14,0 12,2 15 8 S 1008,4 7
13.12.2018 15:00:00 13,0 11,0 5 3 E - 7
13.12.2018 14:00:00 13,0 11,0 15 8 SE - 7
13.12.2018 13:00:00 13,4 10,9 15 8 S 1010,4 12
13.12.2018 12:00:00 11,0 9,0 9 5 SSE - 10
13.12.2018 11:00:00 10,0 8,0 4 2 SSE - 10
13.12.2018 10:00:00 9,0 7,3 4 2 ENE 1013,0 12
13.12.2018 09:00:00 7,0 5,0 4 2 NE - 10
13.12.2018 08:00:00 7,0 5,0 4 2 N - 10
13.12.2018 07:00:00 7,0 5,5 4 2 NW 1013,3 10
13.12.2018 06:00:00 7,0 5,0 4 2 NNE - 10
13.12.2018 05:00:00 7,0 5,0 9 5 NE - 10
13.12.2018 04:00:00 7,2 5,7 8 4 N 1014,2 10
13.12.2018 03:00:00 8,0 6,0 8 4 W - 10
13.12.2018 02:00:00 9,0 7,0 9 5 NE - 10
13.12.2018 01:00:00 8,6 7,1 5 3 N 1015,5 10
13.12.2018 00:00:00 8,0 6,0 5 3 ENE - 10
12.12.2018 23:00:00 9,0 7,0 2 1 NNE - 10
12.12.2018 22:00:00 8,4 6,9 4 2 NE 1016,0 10
12.12.2018 21:00:00 10,0 8,0 4 2 NE - 10
12.12.2018 20:00:00 11,0 10,0 4 2 W - 10
12.12.2018 19:00:00 12,0 10,7 2 1 S 1016,4 10
12.12.2018 18:00:00 12,0 11,0 2 1 WSW - 10
12.12.2018 17:00:00 13,0 11,0 5 3 NW - 10
12.12.2018 16:00:00 13,4 11,3 2 1 NW 1016,4 10
12.12.2018 15:00:00 13,0 11,0 8 4 W - 10
12.12.2018 14:00:00 13,0 11,0 5 3 W - 10
12.12.2018 13:00:00 12,4 10,3 5 3 NNE 1018,0 10
12.12.2018 12:00:00 12,0 10,0 4 2 ENE - 10
12.12.2018 11:00:00 11,0 9,0 4 2 E - 10
12.12.2018 10:00:00 10,0 8,4 9 5 NNE 1018,9 10
12.12.2018 09:00:00 7,0 6,0 9 5 NNE - 10
12.12.2018 08:00:00 7,0 6,0 5 3 N - 10
12.12.2018 07:00:00 7,4 5,9 8 4 NE 1018,6 10
12.12.2018 06:00:00 7,0 6,0 9 5 NE - 10
12.12.2018 05:00:00 6,0 5,0 5 3 NE - 10
12.12.2018 04:00:00 6,2 5,0 8 4 NE 1019,1 10
12.12.2018 03:00:00 6,0 5,0 5 3 ENE - 10
12.12.2018 02:00:00 6,0 5,0 8 4 NE - 10
12.12.2018 01:00:00 8,0 6,6 4 2 W 1019,2 10
12.12.2018 00:00:00 7,0 6,0 4 2 ENE - 10
11.12.2018 23:00:00 9,0 7,0 4 2 NNE - 10
11.12.2018 22:00:00 8,6 8,0 4 2 ESE 1019,1 10
11.12.2018 21:00:00 10,0 10,0 8 4 NNE - 10
11.12.2018 20:00:00 12,0 11,0 4 2 NNW - 10
11.12.2018 19:00:00 11,4 10,8 8 4 NNE 1018,7 10
11.12.2018 18:00:00 12,0 11,0 9 5 NNW - 10
11.12.2018 17:00:00 13,0 11,0 18 10 NNW - 10
11.12.2018 16:00:00 13,0 10,4 21 11 NW 1018,3 12
11.12.2018 15:00:00 14,0 11,0 26 14 NNW - 10
11.12.2018 14:00:00 14,0 9,0 28 15 NW - 10
11.12.2018 13:00:00 14,0 9,2 28 15 NW 1018,9 12
11.12.2018 12:00:00 14,0 9,0 26 14 NW - 10
11.12.2018 11:00:00 14,0 9,0 21 11 NW - 10
11.12.2018 10:00:00 13,0 9,6 9 5 NW 1019,8 12
11.12.2018 09:00:00 11,0 8,0 5 3 NNW - 10
11.12.2018 08:00:00 10,0 8,0 8 4 N - 10
11.12.2018 07:00:00 10,2 7,8 8 4 NW 1019,6 10
11.12.2018 06:00:00 10,0 8,0 9 5 WNW - 10
11.12.2018 05:00:00 10,0 8,0 5 3 NW - 10
11.12.2018 04:00:00 10,0 8,3 5 3 NW 1019,6 12
11.12.2018 03:00:00 9,0 8,0 8 4 NW - 10
11.12.2018 02:00:00 9,0 8,0 8 4 NW - 10
11.12.2018 01:00:00 9,4 8,6 5 3 NNW 1021,3 12
11.12.2018 00:00:00 10,0 9,0 8 4 NNW - 10
10.12.2018 23:00:00 10,0 10,0 9 5 N - 10
10.12.2018 22:00:00 10,2 10,2 5 3 W 1021,4 12
10.12.2018 21:00:00 11,0 11,0 11 6 NW - 10
10.12.2018 20:00:00 12,0 11,0 8 4 N - 10
10.12.2018 19:00:00 12,2 11,1 22 12 NW 1020,9 12
10.12.2018 18:00:00 13,0 11,0 28 15 NW - 10
10.12.2018 17:00:00 14,0 11,0 18 10 N - 10
10.12.2018 16:00:00 14,0 10,6 46 25 NW 1019,0 10
10.12.2018 15:00:00 15,0 11,0 57 31 NW - 10
10.12.2018 14:00:00 15,0 11,0 50 27 NW - 10
10.12.2018 13:00:00 15,2 11,4 44 24 WNW 1021,1 12
10.12.2018 12:00:00 15,0 11,0 42 23 WNW - 10
10.12.2018 11:00:00 15,0 12,0 34 18 NW - 10
10.12.2018 10:00:00 14,4 10,8 31 17 WNW 1021,3 10
10.12.2018 09:00:00 14,0 11,0 24 13 WNW - 10
10.12.2018 08:00:00 13,0 8,0 31 17 WNW - 10
10.12.2018 07:00:00 13,0 9,6 34 18 NNW 1020,1 10
10.12.2018 06:00:00 13,0 10,0 29 16 NNW - 10
10.12.2018 05:00:00 13,0 10,0 15 8 NNW - 10
10.12.2018 04:00:00 13,0 10,4 18 10 NNW 1020,1 12
10.12.2018 03:00:00 13,0 9,0 35 19 WNW - 10
10.12.2018 02:00:00 13,0 9,0 31 17 WNW - 10
10.12.2018 01:00:00 14,0 10,6 26 14 WNW 1020,8 12
10.12.2018 00:00:00 14,0 11,0 24 13 WNW - 10
09.12.2018 23:00:00 15,0 11,0 28 15 NNW - 10
09.12.2018 22:00:00 15,0 11,4 48 26 NNW 1020,8 12
09.12.2018 21:00:00 15,0 12,0 48 26 NW - 10
09.12.2018 20:00:00 15,0 13,0 44 24 NNW - 10
09.12.2018 19:00:00 15,0 13,0 42 23 NW 1019,8 10
09.12.2018 18:00:00 15,0 13,0 28 15 WNW - 10
09.12.2018 17:00:00 15,0 13,0 28 15 WNW - 10
09.12.2018 16:00:00 15,6 12,7 29 16 WNW 1019,8 12
09.12.2018 15:00:00 16,0 13,0 31 17 WNW - 10
09.12.2018 14:00:00 16,0 13,0 39 21 WNW - 10
09.12.2018 13:00:00 16,8 12,4 31 17 WNW 1021,1 12
09.12.2018 12:00:00 17,0 12,0 31 17 WNW - 10
09.12.2018 11:00:00 17,0 11,0 26 14 WNW - 10
09.12.2018 10:00:00 14,6 11,9 8 4 W 1022,8 10
09.12.2018 09:00:00 13,0 12,0 5 3 WNW - 8
09.12.2018 08:00:00 14,0 11,0 21 11 NW - 8
09.12.2018 07:00:00 13,4 11,1 28 15 NW 1021,9 8
09.12.2018 06:00:00 13,0 11,0 24 13 WNW - 8
09.12.2018 05:00:00 13,0 13,0 22 12 NW - 8
09.12.2018 04:00:00 13,0 11,1 29 16 NW 1022,1 8
09.12.2018 03:00:00 12,0 10,0 16 9 NNW - 10
09.12.2018 02:00:00 12,0 10,0 18 10 NW - 10
09.12.2018 01:00:00 12,4 10,3 24 13 WNW 1022,0 15
09.12.2018 00:00:00 12,0 10,0 22 12 WNW - 10
08.12.2018 23:00:00 12,0 10,0 26 14 NW - 10
08.12.2018 22:00:00 12,6 9,8 21 11 NW 1022,1 10
08.12.2018 21:00:00 12,0 9,0 26 14 NW - 10
08.12.2018 20:00:00 12,0 9,0 22 12 NW - 10
08.12.2018 19:00:00 12,4 9,4 29 16 NNW 1021,0 12
08.12.2018 18:00:00 13,0 10,0 29 16 NW - 10
08.12.2018 17:00:00 13,0 9,0 26 14 NW - 10
08.12.2018 16:00:00 14,0 9,4 37 20 NNW 1020,1 20
08.12.2018 15:00:00 14,0 9,0 41 22 NNW - 10
08.12.2018 14:00:00 14,0 9,0 44 24 NNW - 10
08.12.2018 13:00:00 14,2 8,8 41 22 NNW 1020,8 20
08.12.2018 12:00:00 14,0 9,0 39 21 NNW - 10
08.12.2018 11:00:00 14,0 8,0 41 22 NNW - 10

tt = Température de l'air
td = dewpoint
ff = Vitesse du vent
dd = Direction du vent
ppp = reduced air pressure
vv = visibility

stations d'obs. à proximité